Total_Precipitation_Accumulation
0.00 0.00 0.00 0.00 0.00 0.00 0.02 0.07 0.37 0.21 0.35 0.41 0.02 0.02 0.16 0.35 0.12 0.11 0.08 0.07 0.11 0.10 0.11 0.00 0.02 0.04 0.02 0.15 0.15 0.02 0.01 0.04 0.06 0.01 0.01 0.01 0.01 0.01 0.01 0.02 0.01 0.00 0.00
0.00 0.00 0.01 0.00 0.00 0.00 0.00 0.03 0.21 0.35 0.36 0.26 0.16 0.04 0.03 0.11 0.24 0.13 0.09 0.03 0.09 0.24 0.20 0.00 0.02 0.02 0.01 0.11 0.16 0.04 0.02 0.03 0.03 0.00 0.03 0.02 0.03 0.01 0.01 0.00 0.00 0.00 0.00
0.01 0.01 0.04 0.03 0.02 0.03 0.06 0.15 0.16 0.28 0.39 0.39 0.51 0.22 0.08 0.09 0.24 0.19 0.12 0.09 0.07 0.19 0.27 0.04 0.07 0.03 0.00 0.09 0.08 0.04 0.06 0.06 0.04 0.02 0.05 0.01 0.01 0.02 0.00 0.00 0.00 0.00 0.00
0.13 0.27 0.34 0.32 0.42 0.22 0.24 0.27 0.54 0.62 0.58 0.45 0.52 0.52 0.37 0.08 0.04 0.10 0.15 0.29 0.27 0.04 0.10 0.11 0.12 0.04 0.06 0.03 0.05 0.03 0.04 0.05 0.05 0.05 0.04 0.01 0.01 0.00 0.00 0.00 0.00 0.00 0.00
0.13 0.31 0.48 0.43 0.41 0.11 0.27 0.65 0.54 0.56 0.85 0.75 0.58 0.46 0.28 0.20 0.07 0.15 0.32 0.30 0.23 0.04 0.01 0.08 0.08 0.01 0.02 0.00 0.01 0.02 0.05 0.02 0.02 0.03 0.04 0.01 0.01 0.00 0.00 0.00 0.00 0.00 0.00
0.03 0.24 0.28 0.50 0.60 0.19 0.49 0.66 0.87 0.39 0.54 0.89 0.84 0.62 0.26 0.19 0.07 0.18 0.22 0.40 0.19 0.05 0.04 0.07 0.02 0.00 0.01 0.03 0.09 0.05 0.02 0.02 0.01 0.00 0.01 0.01 0.01 0.00 0.00 0.00 0.00 0.00 0.00
0.02 0.14 0.32 0.45 0.32 0.42 0.43 0.36 0.34 0.35 0.47 0.78 0.90 0.54 0.46 0.52 0.32 0.14 0.30 0.37 0.35 0.04 0.05 0.12 0.02 0.00 0.00 0.02 0.03 0.04 0.04 0.03 0.00 0.00 0.00 0.00 0.01 0.00 0.00 0.00 0.00 0.00 0.00
0.02 0.02 0.20 0.21 0.12 0.23 0.08 0.04 0.20 0.36 0.76 0.55 0.45 0.53 0.43 0.47 0.60 0.20 0.14 0.27 0.38 0.26 0.09 0.05 0.00 0.00 0.00 0.00 0.00 0.00 0.02 0.04 0.01 0.00 0.00 0.00 0.00 0.00 0.00 0.00 0.00 0.00 0.00
0.02 0.00 0.02 0.08 0.07 0.12 0.23 0.22 0.27 0.23 0.70 0.62 0.41 0.60 0.37 0.35 0.39 0.50 0.22 0.18 0.36 0.44 0.10 0.04 0.01 0.00 0.00 0.00 0.00 0.00 0.00 0.00 0.01 0.00 0.00 0.00 0.00 0.00 0.00 0.00 0.00 0.00 0.00
0.02 0.02 0.00 0.04 0.22 0.11 0.10 0.20 0.31 0.27 0.37 0.44 0.37 0.25 0.31 0.46 0.38 0.46 0.44 0.31 0.35 0.40 0.16 0.01 0.00 0.00 0.00 0.00 0.00 0.00 0.00 0.00 0.00 0.00 0.00 0.00 0.00 0.00 0.00 0.00 0.00 0.00 0.00
0.08 0.04 0.02 0.01 0.05 0.05 0.08 0.12 0.19 0.28 0.30 0.41 0.45 0.47 0.46 0.54 0.54 0.46 0.48 0.22 0.19 0.29 0.19 0.01 0.00 0.00 0.00 0.00 0.00 0.00 0.00 0.00 0.00 0.00 0.00 0.00 0.00 0.00 0.00 0.00 0.00 0.00 0.00
0.10 0.14 0.11 0.04 0.01 0.06 0.09 0.29 0.36 0.31 0.46 0.56 0.62 0.52 0.31 0.33 0.50 0.46 0.30 0.34 0.08 0.06 0.13 0.03 0.00 0.00 0.00 0.00 0.00 0.00 0.00 0.00 0.00 0.00 0.00 0.00 0.00 0.00 0.00 0.00 0.00 0.00 0.00
0.09 0.18 0.27 0.17 0.05 0.04 0.04 0.19 0.18 0.14 0.28 0.27 0.35 0.37 0.33 0.21 0.38 0.28 0.41 0.40 0.29 0.19 0.08 0.03 0.00 0.00 0.00 0.00 0.00 0.00 0.00 0.00 0.00 0.00 0.00 0.00 0.00 0.00 0.00 0.00 0.00 0.00 0.00
0.27 0.24 0.23 0.07 0.03 0.07 0.09 0.15 0.23 0.13 0.21 0.17 0.21 0.28 0.50 0.28 0.32 0.16 0.32 0.71 0.61 0.55 0.20 0.02 0.00 0.00 0.00 0.00 0.00 0.00 0.00 0.00 0.00 0.00 0.00 0.00 0.00 0.00 0.00 0.00 0.00 0.00 0.00
0.13 0.41 0.30 0.16 0.06 0.07 0.12 0.25 0.24 0.19 0.30 0.25 0.28 0.52 0.53 0.38 0.31 0.16 0.31 0.45 0.47 0.67 0.35 0.11 0.03 0.00 0.00 0.00 0.00 0.00 0.00 0.00 0.00 0.00 0.00 0.00 0.00 0.00 0.00 0.00 0.00 0.00 0.00
0.11 0.46 0.23 0.14 0.12 0.08 0.12 0.22 0.15 0.24 0.37 0.39 0.31 0.24 0.43 0.41 0.39 0.12 0.41 0.31 0.28 0.27 0.54 0.28 0.09 0.04 0.00 0.00 0.00 0.00 0.00 0.00 0.00 0.00 0.00 0.00 0.00 0.00 0.00 0.00 0.00 0.00 0.00
0.07 0.14 0.11 0.11 0.09 0.05 0.06 0.07 0.09 0.39 0.44 0.33 0.43 0.39 0.68 0.73 0.45 0.31 0.27 0.42 0.37 0.32 0.71 0.48 0.51 0.60 0.15 0.01 0.00 0.00 0.00 0.00 0.00 0.01 0.00 0.00 0.00 0.00 0.00 0.00 0.00 0.00 0.00
0.03 0.05 0.07 0.04 0.07 0.08 0.09 0.06 0.12 0.29 0.39 0.43 0.51 0.61 0.57 0.64 0.62 0.48 0.23 0.32 0.53 0.45 0.93 0.73 0.59 1.11 0.57 0.17 0.11 0.06 0.00 0.00 0.00 0.05 0.01 0.00 0.01 0.01 0.00 0.00 0.00 0.00 0.00
0.02 0.04 0.05 0.07 0.06 0.08 0.09 0.11 0.19 0.24 0.29 0.40 0.51 0.44 0.48 0.65 0.71 0.46 0.43 0.53 0.37 0.55 1.05 1.45 0.71 0.81 0.53 0.31 0.29 0.22 0.10 0.05 0.02 0.18 0.03 0.00 0.00 0.00 0.00 0.00 0.00 0.00 0.00
0.02 0.03 0.06 0.06 0.06 0.04 0.04 0.05 0.10 0.11 0.19 0.34 0.62 0.67 0.50 0.45 0.57 0.58 0.40 0.49 1.59 1.46 1.41 1.19 0.77 0.48 0.40 0.41 0.34 0.33 0.40 0.43 0.41 0.10 0.02 0.02 0.02 0.00 0.00 0.00 0.00 0.00 0.00
0.01 0.03 0.04 0.04 0.04 0.03 0.02 0.03 0.05 0.04 0.02 0.19 0.40 0.79 0.89 0.71 0.62 0.52 0.44 0.35 0.66 1.22 0.88 0.60 0.45 0.49 0.50 0.47 0.46 0.35 0.54 0.68 0.43 0.34 0.21 0.08 0.06 0.03 0.01 0.00 0.00 0.00 0.00
0.02 0.03 0.04 0.06 0.06 0.01 0.00 0.00 0.04 0.05 0.04 0.01 0.05 0.16 0.35 0.46 0.43 0.39 0.35 0.25 0.19 0.29 0.38 0.60 0.55 0.59 0.67 0.58 0.54 0.48 0.48 0.42 0.33 0.12 0.24 0.28 0.14 0.15 0.08 0.03 0.02 0.00 0.00
0.07 0.06 0.06 0.08 0.04 0.00 0.00 0.00 0.00 0.07 0.09 0.04 0.00 0.01 0.05 0.09 0.15 0.18 0.20 0.28 0.29 0.28 0.28 0.37 0.42 0.46 0.55 0.46 0.37 0.41 0.43 0.54 0.55 0.28 0.28 0.45 0.30 0.31 0.19 0.10 0.05 0.02 0.00
0.12 0.14 0.07 0.04 0.01 0.00 0.00 0.00 0.00 0.03 0.09 0.06 0.03 0.00 0.00 0.00 0.00 0.00 0.02 0.04 0.05 0.06 0.10 0.07 0.15 0.28 0.49 0.43 0.37 0.56 0.58 0.48 0.47 0.24 0.22 0.34 0.23 0.22 0.22 0.15 0.09 0.01 0.00
0.04 0.05 0.06 0.06 0.04 0.00 0.00 0.00 0.00 0.01 0.11 0.13 0.05 0.01 0.00 0.00 0.00 0.00 0.00 0.00 0.00 0.00 0.00 0.00 0.05 0.10 0.22 0.28 0.35 0.35 0.46 0.42 0.37 0.28 0.16 0.27 0.18 0.14 0.07 0.07 0.03 0.02 0.01
0.09 0.16 0.18 0.17 0.08 0.00 0.02 0.02 0.00 0.00 0.01 0.08 0.13 0.03 0.00 0.00 0.00 0.00 0.00 0.00 0.00 0.00 0.00 0.00 0.00 0.00 0.00 0.01 0.06 0.08 0.13 0.18 0.19 0.14 0.09 0.15 0.19 0.18 0.07 0.05 0.04 0.00 0.01